星链-2351 (STARLINK-2351 )

导读

STARLINK-2351是美国SpaceX公司星链(Starlink)互联网星座的V1.0版本卫星,于2021年3月14日发射升空。它运行在近地轨道,近地点约355公里、远地点约357公里,轨道倾角43度,周期约91.6分钟,作为星链星座组网卫星,为全球提供高速低延迟互联网服务,尤其助力偏远区域网络覆盖。

Basic Information
目录编号:
47891
目录名称:
STARLINK-2351
国际标识:
2021-021AH
轨道中心:
EARTH
卫星名称:
星链-2351
卫星全名:
星链-2351 (STARLINK-2351 )
卫星状态:
已陨落 最后检测时间 2024-12-31
发射日期:
2021-03-14 UTC
国别 :
美国 (US)
星等 :
--
Orbit Information
数据来源 国际轨道数据
星历时间: 2024-12-31T05:52:53+0800
轨道信息已过期534天
半长轴: 6535.952km
偏心率: 0.000212
轨道倾角: 53.028°
近地点辐角 33.265°
升交点赤经 36.593°
平近点角 107.823°
近地点: 156.431km
远地点: 159.203km
周期: 87.644分钟
每日圈数: 16.430075
Detailed Information
固有亮度:
5
最大亮度:
2.5
卫星平台:
Starlink V1.0
覆盖范围:
全球
运营商:
太空探索技术公司
运营商所在国:
美国
制造商(研发单位):
太空探索技术公司
制造商所在国:
美国
使用方式:
暂无
Satellite Introduction
星链(Starlink)计划是由太空探索技术公司(SpaceX)提出的一个巨型低轨卫星互联网星座项目,计划在2019年至2024年间在太空搭建由约1.2万颗卫星组成的“星链”网络,其中1584颗将部署在地球上空550千米处的近地轨道,并从2020年开始工作。该卫星仍在工作。